Location: Goll?ig?dem
(16.6773°N, 80.7332°E)
Time: 00:25:01
(UTC+00:00)

ATLAS 2A CENTAUR R/B - Pass Details

Date: 19 May 2025
Orbit: 242 x 13393 km, 26.9° (Epoch: 18 June)

Event Time Altitude Azimuth Distance (km) Brightness Sun altitude
Exits shadow 22:38:16 31° 259° (W) 1,743 3.8 -19.6°
Maximum altitude 22:41:17 55° 197° (SSW) 1,759 4.0 -19.0°
Drops below altitude 10° 23:03:26 10° 125° (SE) 9,053 8.3 -14.3°
Sets 23:18:51 0° 123° (ESE) 12,992 9.2 -11.0°
